User: anonymous   Login
Location: Ottawa
(45.4170°N, 75.7000°W)
Time: 07:16:25
(UTC-04:00)
Language:

Aureole 3 Rocket - Orbit

View from above orbital plane
View from above orbital plane
View from above satellite
View from above satellite

Ground track
Ground track

The orbit data is extracted from the following two-line orbital elements,

1 12849U 81094B   17083.92822523 +.00000277 +00000-0 +25377-4 0  9992
2 12849 082.4927 231.3907 0902280 281.6105 068.5222 13.50072392730576
Epoch (UTC): 24 March 2017 22:16:38
Eccentricity: 0.0902280
inclination: 82.4927°
perigee height: 400 km
apogee height: 1744 km
right ascension of ascending node: 231.3907°
argument of perigee: 281.6105°
revolutions per day: 13.50072392
mean anomaly at epoch: 68.5222°
orbit number at epoch: 73057

The dashed part of the orbit path shows where the satellite is in the earth's shadow,  

DLR